• Em Portugal
  • Lista de países
  • Para 7 dias
  • Temperatura da água
  • Mapas de satélite
  • Mapa do tempo
  • Widgets de tempo
  • user-avatar
    Iniciar Sessão

    Previsão horária em Mazatenango

    Hoje, 23 Janeiro, Terça-feira

    Tempo Temperatura Precipitação Vento Pressão Humidade
    00:00 +23°C° 0 mm 1 m/s 726 mmHg 67%
    01:00 +23°C° 0 mm 1 m/s 726 mmHg 63%
    02:00 +23°C° 0 mm 1 m/s 726 mmHg 60%
    03:00 +23°C° 0 mm 1 m/s 725 mmHg 56%
    04:00 +23°C° 0 mm 1 m/s 725 mmHg 55%
    05:00 +23°C° 0 mm 1 m/s 726 mmHg 54%
    06:00 +23°C° 0 mm 1 m/s 726 mmHg 50%
    07:00 +25°C° 0 mm 1 m/s 726 mmHg 47%
    08:00 +28°C° 0 mm 1 m/s 726 mmHg 44%
    09:00 +30°C° 0 mm 1 m/s 727 mmHg 41%
    10:00 +31°C° 0 mm 2 m/s 727 mmHg 40%
    11:00 +34°C° 0 mm 2 m/s 726 mmHg 39%
    12:00 +35°C° 0 mm 3 m/s 726 mmHg 39%
    13:00 +35°C° 0 mm 3 m/s 726 mmHg 41%
    14:00 +34°C° 0 mm 4 m/s 725 mmHg 42%
    15:00 +34°C° 0 mm 4 m/s 724 mmHg 44%
    16:00 +31°C° 0 mm 3 m/s 724 mmHg 53%
    17:00 +29°C° 0 mm 2 m/s 724 mmHg 62%
    18:00 +26°C° 0 mm 2 m/s 724 mmHg 71%
    19:00 +26°C° 0 mm 2 m/s 725 mmHg 72%
    20:00 +25°C° 0 mm 2 m/s 726 mmHg 72%
    21:00 +25°C° 0 mm 1 m/s 726 mmHg 72%
    22:00 +25°C° 0 mm 1 m/s 726 mmHg 70%
    23:00 +25°C° 0 mm 1 m/s 726 mmHg 69%

    Amanhã, 24 Janeiro, Quarta-feira

    Tempo Temperatura Precipitação Vento Pressão Humidade
    00:00 +25°C° 0 mm 1 m/s 727 mmHg 67%
    01:00 +24°C° 0 mm 1 m/s 726 mmHg 67%
    02:00 +24°C° 0 mm 1 m/s 726 mmHg 66%
    03:00 +24°C° 0 mm 1 m/s 726 mmHg 65%
    04:00 +24°C° 0 mm 1 m/s 726 mmHg 65%
    05:00 +24°C° 0 mm 1 m/s 726 mmHg 65%
    06:00 +24°C° 0 mm 1 m/s 726 mmHg 65%
    07:00 +26°C° 0 mm 1 m/s 727 mmHg 60%
    08:00 +28°C° 0 mm 1 m/s 727 mmHg 54%
    09:00 +30°C° 0 mm 1 m/s 728 mmHg 49%
    10:00 +31°C° 0 mm 2 m/s 728 mmHg 46%
    11:00 +32°C° 0 mm 2 m/s 728 mmHg 44%
    12:00 +34°C° 0 mm 2 m/s 727 mmHg 42%
    13:00 +34°C° 0 mm 3 m/s 727 mmHg 44%
    14:00 +34°C° 0 mm 3 m/s 726 mmHg 45%
    15:00 +33°C° 0 mm 3 m/s 725 mmHg 47%
    16:00 +31°C° 0 mm 3 m/s 725 mmHg 54%
    17:00 +29°C° 0 mm 2 m/s 725 mmHg 61%
    18:00 +27°C° 0 mm 2 m/s 725 mmHg 68%
    19:00 +26°C° 0 mm 2 m/s 726 mmHg 68%
    20:00 +26°C° 0 mm 2 m/s 727 mmHg 67%
    21:00 +25°C° 0 mm 2 m/s 727 mmHg 66%
    22:00 +25°C° 0 mm 2 m/s 727 mmHg 66%
    23:00 +25°C° 0 mm 1 m/s 727 mmHg 66%

    Depois de amanhã, 25 Janeiro, Quinta-feira

    Tempo Temperatura Precipitação Vento Pressão Humidade
    00:00 +25°C° 0 mm 1 m/s 727 mmHg 67%
    01:00 +25°C° 0 mm 1 m/s 727 mmHg 67%
    02:00 +24°C° 0 mm 1 m/s 727 mmHg 67%
    03:00 +24°C° 0 mm 1 m/s 726 mmHg 67%
    04:00 +24°C° 0 mm 1 m/s 726 mmHg 66%
    05:00 +24°C° 0 mm 1 m/s 726 mmHg 64%
    06:00 +24°C° 0 mm 1 m/s 726 mmHg 63%
    07:00 +26°C° 0 mm 1 m/s 727 mmHg 59%
    08:00 +28°C° 0 mm 1 m/s 728 mmHg 54%
    09:00 +30°C° 0 mm 1 m/s 728 mmHg 50%
    10:00 +31°C° 0 mm 2 m/s 728 mmHg 47%
    11:00 +32°C° 0 mm 2 m/s 728 mmHg 44%
    12:00 +35°C° 0 mm 3 m/s 728 mmHg 41%
    13:00 +34°C° 0 mm 3 m/s 727 mmHg 43%
    14:00 +34°C° 0 mm 3 m/s 726 mmHg 46%
    15:00 +33°C° 0 mm 3 m/s 725 mmHg 48%
    16:00 +30°C° 0,3 mm 3 m/s 726 mmHg 57%
    17:00 +28°C° 0,3 mm 3 m/s 726 mmHg 65%
    18:00 +26°C° 0,3 mm 2 m/s 726 mmHg 74%
    19:00 +26°C° 0,2 mm 2 m/s 727 mmHg 74%
    20:00 +25°C° 0,2 mm 2 m/s 727 mmHg 74%
    21:00 +24°C° 0,2 mm 2 m/s 728 mmHg 73%
    22:00 +24°C° 0 mm 1 m/s 728 mmHg 72%
    23:00 +24°C° 0 mm 1 m/s 728 mmHg 70%

    26 Janeiro, Sexta-feira

    Tempo Temperatura Precipitação Vento Pressão Humidade
    00:00 +24°C° 0 mm 1 m/s 728 mmHg 68%
    01:00 +24°C° 0 mm 1 m/s 727 mmHg 67%
    02:00 +24°C° 0 mm 1 m/s 727 mmHg 66%
    03:00 +23°C° 0 mm 1 m/s 726 mmHg 65%
    04:00 +23°C° 0 mm 1 m/s 727 mmHg 64%
    05:00 +23°C° 0 mm 1 m/s 727 mmHg 63%
    06:00 +23°C° 0 mm 1 m/s 727 mmHg 62%
    07:00 +25°C° 0 mm 1 m/s 727 mmHg 57%
    08:00 +27°C° 0 mm 1 m/s 728 mmHg 52%
    09:00 +30°C° 0 mm 1 m/s 728 mmHg 48%
    10:00 +31°C° 0 mm 2 m/s 728 mmHg 44%
    11:00 +32°C° 0 mm 2 m/s 728 mmHg 40%
    12:00 +35°C° 0 mm 3 m/s 727 mmHg 37%
    13:00 +34°C° 0 mm 3 m/s 727 mmHg 39%
    14:00 +34°C° 0 mm 3 m/s 726 mmHg 42%
    15:00 +33°C° 0 mm 3 m/s 725 mmHg 45%
    16:00 +30°C° 0 mm 3 m/s 725 mmHg 53%
    17:00 +29°C° 0 mm 3 m/s 725 mmHg 62%
    18:00 +27°C° 0 mm 2 m/s 725 mmHg 70%
    19:00 +26°C° 0 mm 2 m/s 726 mmHg 71%
    20:00 +25°C° 0 mm 2 m/s 726 mmHg 71%
    21:00 +24°C° 0 mm 2 m/s 727 mmHg 71%
    22:00 +24°C° 0,1 mm 2 m/s 727 mmHg 69%
    23:00 +24°C° 0,1 mm 1 m/s 727 mmHg 67%

    27 Janeiro, Sábado

    Tempo Temperatura Precipitação Vento Pressão Humidade
    00:00 +24°C° 0,1 mm 1 m/s 727 mmHg 65%
    01:00 +24°C° 0 mm 1 m/s 726 mmHg 64%
    02:00 +24°C° 0 mm 1 m/s 726 mmHg 64%
    03:00 +23°C° 0 mm 1 m/s 725 mmHg 63%
    04:00 +23°C° 0 mm 1 m/s 725 mmHg 62%
    05:00 +23°C° 0 mm 1 m/s 726 mmHg 61%
    06:00 +23°C° 0 mm 1 m/s 726 mmHg 61%
    07:00 +26°C° 0 mm 1 m/s 726 mmHg 55%
    08:00 +28°C° 0 mm 1 m/s 727 mmHg 49%
    09:00 +30°C° 0 mm 1 m/s 727 mmHg 43%
    10:00 +32°C° 0 mm 2 m/s 727 mmHg 40%
    11:00 +34°C° 0 mm 2 m/s 727 mmHg 38%
    12:00 +35°C° 0 mm 3 m/s 726 mmHg 35%
    13:00 +34°C° 0 mm 3 m/s 726 mmHg 38%
    14:00 +34°C° 0 mm 3 m/s 725 mmHg 42%
    15:00 +33°C° 0 mm 3 m/s 724 mmHg 45%
    16:00 +30°C° 0 mm 2 m/s 724 mmHg 53%
    17:00 +29°C° 0 mm 2 m/s 724 mmHg 60%
    18:00 +27°C° 0 mm 2 m/s 724 mmHg 68%
    19:00 +26°C° 0 mm 2 m/s 725 mmHg 69%
    20:00 +25°C° 0 mm 2 m/s 726 mmHg 71%
    21:00 +24°C° 0 mm 1 m/s 726 mmHg 72%
    22:00 +24°C° 0 mm 1 m/s 726 mmHg 71%
    23:00 +24°C° 0 mm 1 m/s 726 mmHg 69%

    28 Janeiro, Domingo

    Tempo Temperatura Precipitação Vento Pressão Humidade
    00:00 +24°C° 0 mm 1 m/s 726 mmHg 67%
    01:00 +24°C° 0 mm 1 m/s 726 mmHg 66%
    02:00 +24°C° 0 mm 2 m/s 725 mmHg 66%
    03:00 +24°C° 0 mm 2 m/s 725 mmHg 65%
    04:00 +24°C° 0 mm 1 m/s 725 mmHg 65%
    05:00 +24°C° 0 mm 1 m/s 725 mmHg 64%
    06:00 +23°C° 0 mm 1 m/s 726 mmHg 64%
    07:00 +26°C° 0 mm 1 m/s 726 mmHg 57%
    08:00 +28°C° 0 mm 1 m/s 727 mmHg 51%
    09:00 +30°C° 0 mm 1 m/s 727 mmHg 45%
    10:00 +32°C° 0 mm 2 m/s 727 mmHg 42%
    11:00 +34°C° 0 mm 2 m/s 727 mmHg 40%
    12:00 +35°C° 0 mm 3 m/s 726 mmHg 37%
    13:00 +35°C° 0 mm 3 m/s 725 mmHg 41%
    14:00 +34°C° 0 mm 3 m/s 725 mmHg 44%
    15:00 +33°C° 0 mm 3 m/s 724 mmHg 48%
    16:00 +30°C° 0 mm 2 m/s 724 mmHg 55%
    17:00 +29°C° 0 mm 2 m/s 724 mmHg 63%
    18:00 +27°C° 0 mm 2 m/s 725 mmHg 71%
    19:00 +26°C° 0 mm 2 m/s 725 mmHg 72%
    20:00 +25°C° 0 mm 1 m/s 726 mmHg 74%
    21:00 +25°C° 0 mm 1 m/s 726 mmHg 75%
    22:00 +25°C° 0 mm 1 m/s 726 mmHg 73%
    23:00 +25°C° 0 mm 1 m/s 726 mmHg 72%
    Mostrar mais